Lapse_Rate
5.6 5.4 5.8 5.3 6.1 6.1 6.0 6.0 5.6 5.9 5.7 5.9 6.9 6.0 5.8 5.9 5.1 5.0 4.9 4.7 4.5 4.3 4.3 4.2 3.9 4.5 5.1 6.0 6.5 7.5 6.9 7.4 7.6 7.6 7.6 8.1 8.2 8.5 8.2 7.9 7.9 7.8 7.6 7.5
5.4 5.3 5.4 5.7 5.8 5.9 5.8 5.4 5.9 5.7 5.8 5.6 6.0 6.3 5.8 5.6 5.4 5.2 5.0 4.6 4.4 4.2 4.3 4.1 4.9 5.8 5.8 5.8 6.7 6.5 7.3 7.2 7.5 7.3 7.4 7.8 8.4 8.5 8.5 8.1 8.1 8.0 7.9 7.8
5.2 4.7 5.5 5.7 5.8 5.8 5.4 5.6 5.2 5.2 5.2 5.7 5.5 6.9 5.9 5.6 5.7 5.2 4.7 4.5 4.4 4.3 4.4 5.2 5.8 6.6 6.8 7.0 7.1 7.3 7.5 7.4 7.3 7.6 7.1 7.6 8.1 8.1 7.9 8.0 8.2 8.0 7.7 7.9
4.5 5.3 5.2 5.0 4.8 5.6 5.6 5.9 5.8 5.6 5.1 6.5 5.1 7.1 6.5 5.9 5.6 5.1 4.7 4.4 4.3 5.5 6.0 6.5 6.6 6.7 6.9 6.8 6.7 7.1 7.2 7.2 7.2 7.8 7.3 7.3 8.0 7.9 7.8 8.0 8.3 8.2 8.1 8.2
4.6 5.1 5.2 4.6 4.7 5.5 5.2 6.0 6.0 5.4 5.1 5.3 5.8 5.9 7.5 6.2 5.3 4.8 4.5 4.2 5.0 6.0 6.3 6.4 6.3 6.8 6.7 6.9 6.8 6.7 7.2 7.1 6.9 7.5 7.7 7.2 8.0 7.1 6.8 8.2 8.6 8.4 8.3 8.4
4.5 4.9 4.7 4.4 5.2 5.4 5.8 6.3 5.4 5.2 5.5 6.8 6.5 6.0 6.9 5.7 4.7 4.4 4.7 4.6 6.4 6.5 6.1 6.4 5.9 6.2 6.4 6.5 6.8 7.1 7.0 7.1 6.9 7.5 7.8 7.7 7.9 7.8 7.8 7.0 8.4 8.5 8.2 8.5
4.6 4.1 4.7 5.1 5.1 5.1 5.2 5.9 7.8 7.6 7.3 7.8 6.2 5.8 6.5 5.5 4.9 4.4 5.0 6.0 6.3 6.1 6.4 6.2 6.1 6.6 6.3 6.4 6.6 7.4 7.3 6.8 7.1 7.8 7.9 7.8 8.0 8.4 8.4 8.5 8.2 8.4 8.3 8.4
5.1 4.8 4.4 5.2 5.4 5.1 4.9 5.6 6.9 6.6 7.4 7.6 6.6 6.6 7.3 5.6 4.9 5.8 6.5 6.2 5.9 6.2 6.1 5.4 5.5 6.1 6.7 6.8 7.1 7.8 8.0 7.6 7.7 8.1 8.1 8.1 8.3 8.4 8.2 7.7 8.3 8.6 8.6 8.4
5.4 4.6 4.5 4.9 5.5 5.6 4.9 5.7 5.1 5.1 5.7 5.9 6.8 6.8 7.0 5.6 4.9 6.0 6.2 6.1 5.7 6.4 5.7 5.1 5.5 6.2 7.1 7.2 7.0 7.4 8.0 7.8 8.1 8.1 8.3 8.3 8.3 8.4 8.4 8.4 8.6 8.7 8.7 8.6
5.3 4.6 4.3 5.0 5.3 5.3 5.1 5.0 5.5 5.6 6.2 6.4 7.3 7.0 6.9 5.3 4.8 6.0 6.1 6.1 5.6 6.0 5.6 5.1 5.5 6.2 7.1 8.0 8.2 8.0 8.1 8.1 8.1 8.3 8.4 8.4 8.3 8.3 8.5 8.6 8.9 8.9 8.7 8.5
5.5 5.2 4.5 5.0 5.0 5.2 4.8 5.2 5.2 5.4 5.7 6.7 6.7 7.7 5.5 5.1 5.5 6.3 5.9 5.9 5.5 6.0 5.6 5.1 5.3 5.5 6.4 7.2 7.8 8.4 8.1 8.1 8.3 8.3 8.2 8.0 7.9 8.0 8.0 8.3 8.6 9.0 8.8 8.9
5.6 5.1 5.2 5.3 4.9 5.2 5.4 5.4 5.2 5.8 5.9 5.9 5.9 6.2 5.8 5.7 6.7 6.4 6.0 5.6 5.7 5.7 5.8 5.2 5.4 5.3 5.7 6.8 7.3 7.2 8.1 8.0 8.0 8.1 8.0 8.1 8.0 7.9 7.9 8.2 8.4 8.5 8.6 9.0
5.6 5.0 5.4 5.3 4.6 5.2 5.3 5.3 5.3 5.0 4.8 5.6 6.2 7.5 7.1 6.2 6.5 6.7 6.0 6.0 5.8 5.7 6.0 5.5 5.4 5.4 5.1 5.7 6.9 7.1 7.0 7.5 7.7 7.7 7.6 7.7 7.9 7.9 8.0 8.2 8.3 8.5 8.1 7.7
5.3 5.7 5.9 6.6 6.0 5.9 5.5 5.5 5.3 4.9 5.3 6.2 6.6 6.3 6.3 5.8 6.2 6.5 6.1 6.0 5.7 5.5 5.8 5.7 5.6 5.4 5.3 4.8 6.0 6.9 6.7 6.8 6.9 7.0 7.2 7.1 7.3 7.8 7.7 7.6 7.5 7.8 7.3 7.2
5.2 5.7 6.0 5.5 5.5 5.9 5.9 5.6 5.3 5.0 5.4 5.0 6.2 5.8 5.7 6.1 5.8 5.9 5.6 5.8 5.8 5.5 6.0 5.5 5.6 5.4 5.5 5.2 5.1 5.7 6.5 6.2 6.5 6.6 6.7 6.8 7.0 7.1 7.5 7.2 7.0 6.6 6.4 6.6
5.4 5.3 5.8 5.7 5.6 6.0 5.9 5.5 5.2 5.4 5.2 5.4 5.7 5.9 6.0 6.2 6.1 5.9 5.8 5.6 5.7 5.5 5.7 5.6 5.5 5.8 5.5 5.2 4.0 5.0 5.9 6.3 6.4 6.5 6.5 6.4 6.6 6.9 6.8 6.8 6.8 5.5 6.1 6.2
5.7 5.5 5.4 6.5 6.2 5.9 5.6 6.1 5.7 5.7 5.7 5.7 5.9 6.0 6.2 6.8 6.5 6.2 5.8 5.6 5.6 5.6 5.3 5.7 5.6 6.0 5.9 5.6 5.0 4.3 4.7 5.3 6.0 5.6 5.3 5.4 6.3 5.6 6.3 6.0 6.0 5.8 5.8 5.7
5.9 5.4 5.5 6.4 6.2 6.5 6.2 6.0 5.5 5.5 6.0 6.1 6.2 6.0 6.0 6.4 6.3 6.1 5.8 5.5 5.6 5.5 5.2 5.4 5.7 5.6 6.0 5.7 5.5 5.1 5.4 5.5 5.4 5.3 5.7 5.8 5.7 5.7 6.0 5.7 5.8 5.1 5.2 5.1
5.5 5.4 5.8 6.6 7.1 6.5 5.7 5.9 5.6 5.6 5.7 6.1 6.1 5.9 6.0 6.6 6.5 5.4 5.7 5.7 5.5 5.5 5.1 5.3 5.4 5.8 5.6 6.1 6.4 5.8 5.7 6.0 6.1 6.1 6.0 6.1 6.1 6.4 6.4 6.1 6.0 5.8 6.1 6.0
5.5 5.6 6.1 6.5 7.0 7.0 6.3 6.1 5.8 5.9 5.9 6.2 6.3 6.2 6.2 6.5 6.8 6.3 6.1 5.9 5.7 5.5 5.3 5.3 5.2 5.4 5.6 5.8 6.2 6.3 6.2 6.4 6.2 6.2 6.3 6.4 6.5 6.7 6.8 6.3 6.3 6.1 6.4 6.4
5.0 5.2 6.3 6.8 6.7 6.5 6.0 6.0 6.0 6.1 6.2 6.2 6.1 6.3 6.4 6.5 6.6 6.6 6.3 6.1 5.9 5.7 5.5 5.2 5.2 5.2 5.3 5.7 5.8 5.8 6.2 6.3 6.2 6.2 6.4 6.2 6.3 6.3 6.4 6.3 6.2 6.2 6.1 6.1
5.6 6.1 6.2 6.5 6.6 6.7 5.9 5.8 5.9 6.2 6.2 6.1 6.1 6.4 6.5 6.7 6.9 6.7 6.3 6.2 6.0 5.8 5.7 5.6 5.6 5.5 5.4 5.4 5.7 5.7 5.6 6.1 6.5 6.4 6.8 6.6 6.5 6.4 6.5 6.4 6.2 6.2 6.1 6.1
5.9 6.4 6.6 6.5 6.6 6.0 5.7 5.8 5.9 5.9 6.0 6.2 6.4 6.6 6.8 7.0 7.0 6.9 6.5 6.3 6.3 6.0 6.0 5.8 5.7 5.8 5.7 5.6 5.7 5.6 5.7 5.9 6.1 6.5 6.5 6.6 6.5 6.5 6.3 6.1 6.1 6.1 6.0 6.0
6.3 6.4 6.4 6.4 6.2 5.9 6.0 6.0 5.8 5.9 6.0 6.3 6.6 6.8 6.9 7.1 7.1 7.0 6.8 6.4 6.3 6.3 6.3 6.1 5.8 5.6 5.9 5.8 5.8 5.9 5.8 6.0 6.0 6.2 6.2 6.4 6.5 6.4 6.4 6.4 6.2 6.1 6.1 6.1
6.3 6.4 6.3 6.1 6.1 6.1 6.0 6.0 6.0 6.1 6.3 6.5 6.7 6.9 7.1 7.3 7.3 7.1 6.8 6.5 6.6 6.5 6.2 6.2 6.2 5.9 5.9 5.9 5.8 6.0 5.9 6.0 6.0 6.1 6.2 6.3 6.4 6.3 6.3 6.4 6.3 6.3 6.2 6.0
6.3 6.4 6.1 6.0 5.9 5.9 5.8 5.9 6.1 6.2 6.3 6.6 6.9 7.1 7.3 7.6 7.6 7.3 7.0 6.5 6.7 6.6 6.2 6.1 6.1 6.1 5.9 5.8 5.8 5.8 5.9 5.9 6.1 6.2 6.1 6.0 6.2 6.3 6.3 6.2 6.3 6.3 6.2 6.2
Wind_Speed
3 7 7 4 4 4 2 5 10 12 9 13 15 20 17 15 9 9 12 15 15 19 21 23 24 25 31 30 26 24 23 21 16 15 15 15 16 15 15 15 18 18 19 22
6 8 5 5 4 1 3 8 8 8 6 12 18 23 13 4 6 7 15 16 20 26 27 26 26 29 29 28 29 28 25 23 19 16 15 15 15 15 16 13 16 18 17 21
7 8 7 4 2 4 4 5 6 10 18 15 14 5 1 6 5 12 17 20 24 28 29 28 30 29 27 31 26 27 26 26 21 21 16 15 12 11 14 15 15 17 19 20
3 7 6 5 1 4 6 2 9 14 11 7 7 6 2 10 12 16 19 23 26 28 28 27 28 29 25 26 30 30 27 25 21 22 19 23 16 16 15 15 14 15 22 19
6 10 9 6 1 1 3 10 13 13 10 9 5 7 3 10 17 22 25 26 25 25 24 28 27 28 26 25 27 29 25 23 23 21 22 17 21 15 18 12 18 18 16 20
7 2 4 3 2 1 6 9 6 4 4 5 2 4 6 11 19 25 29 26 26 29 28 25 26 25 24 24 25 29 24 22 23 22 23 23 23 21 16 21 14 14 13 14
8 8 5 1 2 4 5 7 3 4 4 3 3 8 8 11 18 24 25 24 23 25 26 25 26 25 25 27 26 24 22 21 22 21 22 24 24 23 23 17 14 14 11 12
11 7 10 4 1 2 2 4 2 4 4 9 12 7 3 10 19 23 22 20 22 25 26 26 25 23 24 27 26 24 25 17 18 20 22 21 24 15 15 14 10 13 13 14
7 6 7 3 2 3 5 2 3 3 6 5 4 8 7 14 20 20 19 19 23 24 26 28 26 24 24 25 24 23 24 23 11 17 16 19 19 19 16 17 17 13 17 13
5 6 8 6 6 4 2 4 4 5 4 5 6 12 6 19 22 21 22 23 25 23 25 24 24 26 24 27 25 27 25 21 19 14 10 14 16 17 15 15 17 17 14 15
8 3 8 4 7 9 7 5 3 2 4 4 7 3 7 14 20 21 21 23 23 21 23 21 22 24 22 25 25 24 23 22 19 18 16 11 5 11 13 12 13 12 11 13
4 2 6 6 5 3 4 7 5 4 5 6 7 11 7 13 18 19 19 22 22 20 22 22 22 22 22 26 26 24 23 22 19 17 17 17 14 12 10 1 9 9 11 8
9 6 6 6 5 5 10 11 6 3 4 11 9 6 11 16 18 18 19 21 21 21 21 21 20 20 21 22 22 21 21 20 19 17 16 16 14 12 13 11 9 4 8 7
5 4 2 5 4 7 9 12 12 7 5 10 12 17 16 16 19 19 19 19 21 20 19 18 18 19 19 17 18 18 19 18 17 16 16 15 15 14 12 11 10 11 3 8
3 4 4 5 4 6 8 10 11 11 13 6 12 16 12 14 16 17 17 19 22 21 21 18 17 17 18 18 16 14 16 18 17 19 18 14 14 15 13 11 11 10 9 3
4 4 6 5 8 10 12 11 11 14 13 15 16 14 10 13 14 16 14 20 20 21 21 19 17 17 17 17 18 19 16 16 14 15 17 17 14 18 14 14 11 11 10 9
8 6 7 3 6 5 8 17 14 4 7 7 6 6 13 16 16 12 13 18 19 20 20 19 17 16 17 18 18 18 18 17 19 13 12 15 19 16 16 14 13 14 12 10
9 9 5 5 6 7 3 3 10 8 7 6 7 7 8 12 15 4 12 15 18 19 20 19 17 17 17 16 18 16 17 16 14 14 16 14 11 12 14 13 12 12 10 10
6 7 4 4 10 2 4 8 6 4 1 5 5 7 8 11 15 7 15 14 15 16 16 15 15 16 17 18 17 17 16 17 19 19 19 17 16 14 12 12 13 11 10 10
6 4 5 5 4 5 5 8 2 4 4 6 2 5 6 9 6 7 14 13 14 14 14 15 16 15 15 17 17 16 15 15 16 16 16 16 15 14 14 13 12 10 8 8
7 6 9 7 6 2 5 5 6 5 4 3 2 3 4 4 4 9 11 12 12 13 14 15 14 14 15 16 15 15 15 16 14 13 13 14 15 13 13 11 11 11 10 10
8 9 6 7 8 8 9 7 4 5 5 3 2 3 4 4 7 8 9 11 12 13 13 14 13 13 14 15 15 14 14 14 13 11 12 13 13 11 11 14 11 12 11 12
6 2 4 6 1 8 7 1 5 3 2 2 2 3 4 4 5 7 8 9 10 11 12 12 12 13 13 14 14 14 14 13 12 11 11 11 12 13 12 12 13 11 12 10
4 4 3 6 4 5 5 5 4 3 2 2 2 3 4 5 5 7 7 8 9 9 11 11 11 12 13 13 14 15 15 14 12 11 11 10 11 10 13 10 9 10 11 9
2 8 5 2 6 4 4 5 6 4 2 3 1 4 5 5 5 6 6 7 8 9 9 9 10 11 12 13 13 14 15 14 11 11 11 11 9 10 9 10 10 10 12 13
5 4 4 2 5 2 3 7 5 4 3 3 2 3 6 5 4 6 5 6 7 8 10 10 10 11 12 12 13 14 14 14 13 10 9 9 8 8 8 7 6 16 16 21
Wind_Direction
176 231 233 96 55 62 58 295 299 303 340 314 301 307 319 308 309 334 328 326 320 318 318 319 326 322 315 303 285 260 261 256 250 238 217 213 211 208 212 206 200 198 194 201
198 230 128 114 106 18 307 307 313 293 301 318 302 306 304 39 354 333 345 343 339 331 324 327 331 323 317 295 284 275 250 249 246 242 226 213 211 202 207 202 200 197 188 198
260 109 150 164 150 308 280 287 330 304 314 284 314 278 99 75 351 356 357 347 342 340 337 337 327 324 325 317 297 277 255 251 241 234 229 217 215 210 203 201 203 195 195 193
150 150 167 184 194 314 287 24 311 302 312 316 352 293 336 350 5 358 349 348 348 351 345 335 327 318 332 320 311 296 264 242 239 238 239 217 202 201 211 206 202 195 196 197
127 171 170 192 80 310 349 314 297 293 277 294 173 269 32 10 353 349 347 343 352 347 344 334 335 332 327 325 318 306 269 239 241 230 237 221 214 203 208 196 206 193 191 198
125 123 208 115 128 214 303 286 280 231 252 248 131 300 304 19 358 345 346 353 353 345 344 334 341 330 330 330 322 318 269 237 238 227 232 219 215 206 205 202 193 194 189 188
154 162 146 218 235 162 286 301 260 228 223 281 131 285 268 24 8 355 348 351 347 348 345 348 341 331 337 332 325 323 302 240 235 225 226 213 213 211 203 187 185 188 188 193
184 185 180 142 44 343 52 339 330 274 287 312 301 233 87 36 8 14 359 357 346 350 352 348 340 333 339 334 330 332 334 246 234 220 220 214 215 212 215 206 183 199 200 201
183 137 131 126 150 221 134 181 28 294 247 271 229 272 284 12 358 7 354 346 348 356 352 347 343 339 341 339 335 339 350 354 237 225 224 217 211 214 205 207 203 201 206 201
158 135 183 136 159 150 260 128 204 173 283 287 289 302 6 349 348 3 354 351 349 350 351 346 345 342 342 344 343 351 359 355 0 357 215 206 206 208 209 210 202 210 208 191
150 178 149 170 205 172 167 185 204 281 260 286 303 5 30 2 355 355 350 348 347 349 348 349 345 342 340 349 349 352 357 357 7 10 15 12 254 216 209 205 209 205 187 186
131 110 159 181 136 258 240 185 196 241 173 241 287 289 47 19 5 350 346 344 346 350 350 352 350 345 344 354 347 350 355 0 5 11 14 21 20 27 30 182 201 219 210 185
167 152 138 156 161 179 212 199 216 224 258 249 271 270 9 10 354 353 343 344 348 351 351 351 351 348 348 350 342 348 354 360 2 8 16 16 16 26 21 23 10 166 136 153
129 173 249 211 106 146 197 203 204 204 243 265 258 294 323 352 344 345 343 345 347 350 354 353 350 346 345 342 339 344 355 1 3 8 15 16 17 17 15 16 13 6 186 173
174 169 200 234 198 203 213 204 214 212 236 253 292 307 344 343 340 344 340 342 346 349 352 355 351 343 341 343 343 348 355 359 1 13 17 4 21 21 11 10 18 15 6 242
175 140 187 233 219 227 242 241 228 226 250 266 272 284 20 339 339 347 346 347 345 347 350 352 350 343 344 345 345 356 356 0 1 15 7 357 10 18 359 9 16 26 8 10
161 165 176 197 176 192 251 234 209 176 221 255 280 356 341 327 336 354 359 349 344 345 349 351 352 350 345 348 349 353 353 359 13 5 355 2 19 7 359 3 4 12 14 18
165 182 169 160 169 225 82 98 184 210 237 252 266 297 324 319 320 25 10 351 343 348 350 350 349 351 349 347 350 358 360 7 5 3 3 16 18 12 9 3 3 11 16 21
183 173 158 206 210 78 187 201 200 219 204 191 255 287 319 326 306 134 14 357 346 347 351 350 349 350 352 351 349 357 7 4 6 3 6 9 11 10 7 6 5 7 20 32
163 227 221 182 233 228 94 139 144 166 211 169 267 315 328 335 340 348 347 353 351 353 353 352 351 355 357 355 350 358 3 9 7 1 1 6 8 12 12 10 6 6 26 47
166 183 205 208 239 182 149 144 162 231 81 140 108 338 349 352 329 329 336 349 358 354 355 354 355 0 1 356 353 1 3 4 2 1 7 13 15 14 15 14 18 16 27 41
165 168 189 218 230 236 148 141 244 69 115 110 64 2 343 343 334 334 344 350 358 355 356 359 357 2 4 2 356 1 8 354 0 5 13 21 22 21 21 22 24 27 33 41
189 200 172 207 142 117 159 60 118 103 115 118 16 8 357 353 335 339 350 355 359 4 356 357 358 0 5 6 2 3 1 357 3 11 13 21 27 32 32 27 25 28 32 31
135 158 180 181 157 175 151 140 140 140 132 117 15 10 4 339 338 339 354 2 360 8 2 356 355 2 4 2 360 358 356 356 2 7 19 21 31 36 36 37 34 31 28 28
109 166 150 167 162 147 174 180 161 143 134 111 48 24 14 351 342 347 358 7 2 4 5 4 360 357 1 359 0 1 354 356 2 13 14 16 26 30 42 55 39 40 40 34
176 147 187 204 92 256 92 150 148 155 125 87 42 26 18 8 354 341 5 12 7 6 4 3 6 360 356 357 359 1 1 358 2 12 14 19 20 22 32 34 63 64 50 42